This is the latest recevied weather packets stored in our database for station/object XE2VP-WX. If no packets are shown the sender has not sent any weather packets the latest 10 day(s).
| Time | Temp. | Humidity | Pressure | Rain* | Wind** | Luminosity | Snow |
|---|---|---|---|---|---|---|---|
| 1778111954 | 33.33° C | 45% | 938.3 hPa | 0 mm | - | 73 W/m² | - |
| 1778111894 | 33.33° C | 45% | 938.3 hPa | 0 mm | - | 107 W/m² | - |
| 1778111834 | 33.89° C | 44% | 938.3 hPa | 0 mm | - | 137 W/m² | - |
| 1778111774 | 33.89° C | 44% | 938.3 hPa | 0 mm | - | 135 W/m² | - |
| 1778111715 | 33.89° C | 44% | 938.2 hPa | 0 mm | - | 143 W/m² | - |
| 1778111654 | 33.89° C | 43% | 938.3 hPa | 0 mm | - | 125 W/m² | - |
| 1778111595 | 33.89° C | 43% | 938.3 hPa | 0 mm | - | 138 W/m² | - |
| 1778111534 | 33.89° C | 43% | 938.3 hPa | 0 mm | - | 212 W/m² | - |
| 1778111474 | 34.44° C | 42% | 938.2 hPa | 0 mm | - | 230 W/m² | - |
| 1778111415 | 34.44° C | 42% | 938.2 hPa | 0 mm | - | 168 W/m² | - |
| 1778111354 | 34.44° C | 42% | 938.2 hPa | 0 mm | - | 138 W/m² | - |
| 1778111295 | 34.44° C | 42% | 938.1 hPa | 0 mm | - | 145 W/m² | - |
| 1778111235 | 34.44° C | 41% | 938.1 hPa | 0 mm | - | 149 W/m² | - |
| 1778111174 | 34.44° C | 41% | 938 hPa | 0 mm | - | 114 W/m² | - |
| 1778111114 | 34.44° C | 41% | 938.1 hPa | 0 mm | - | 90 W/m² | - |
| 1778111055 | 35° C | 41% | 937.9 hPa | 0 mm | - | 95 W/m² | - |
| 1778110995 | 35° C | 40% | 938.1 hPa | 0 mm | - | 97 W/m² | - |
| 1778110934 | 35° C | 40% | 938 hPa | 0 mm | - | 139 W/m² | - |
| 1778110875 | 35° C | 39% | 937.9 hPa | 0 mm | - | 209 W/m² | - |
| 1778110814 | 35.56° C | 38% | 937.9 hPa | 0 mm | - | 244 W/m² | - |
| 1778110755 | 35.56° C | 37% | 937.8 hPa | 0 mm | - | 250 W/m² | - |
| 1778110695 | 35.56° C | 36% | 937.9 hPa | 0 mm | - | 276 W/m² | - |
| 1778110634 | 35.56° C | 35% | 937.9 hPa | 0 mm | - | 279 W/m² | - |
| 1778110575 | 35.56° C | 35% | 937.9 hPa | 0 mm | - | 281 W/m² | - |
| 1778110514 | 35.56° C | 35% | 937.9 hPa | 0 mm | - | 290 W/m² | - |
* Rain latest hour (hover to see other rain measurements)
** Current wind speed in m/s (hover to see current wind gust speed)